Date,TemperatureHighF,TemperatureAvgF,TemperatureLowF,DewpointHighF,DewpointAvgF,DewpointLowF,HumidityHigh,HumidityAvg,HumidityLow,PressureMaxIn,PressureMinIn,WindSpeedMaxMPH,WindSpeedAvgMPH,GustSpeedMaxMPH,PrecipitationSumIn
2013-1-1,43.5,40.7,37.6,42.4,35.7,23.2,96,83,53,30.10,29.92,5,0,5,0.40
2013-1-2,43.5,40.2,37.9,42.4,36.0,32.9,96,85,72,30.11,29.89,11,1,11,0.03
2013-1-3,39.1,35.1,27.9,37.2,31.5,22.5,96,87,67,30.29,30.07,11,0,11,0.00
2013-1-4,41.3,31.8,26.9,22.7,17.3,11.1,81,57,30,30.37,30.24,17,3,17,0.00
2013-1-5,50.2,34.7,21.4,30.4,20.2,13.5,84,58,24,30.41,30.16,12,1,12,0.01
2013-1-6,49.9,39.0,32.1,37.4,30.9,26.7,92,73,51,30.17,29.98,19,2,19,0.00
2013-1-7,36.3,34.6,32.9,27.8,26.2,24.5,72,71,69,30.15,30.13,13,3,13,0.00
2013-1-8,53.3,45.8,37.6,48.7,40.5,0.0,94,83,60,30.39,30.25,6,0,7,0.00
2013-1-9,54.4,50.2,46.4,51.5,48.1,44.9,96,92,89,30.42,30.33,3,0,5,0.00
2013-1-10,60.2,52.0,43.6,51.9,46.9,41.0,96,83,71,30.42,30.18,10,1,12,0.10
2013-1-11,58.0,54.3,45.4,56.9,53.2,44.0,96,96,95,30.20,30.06,6,0,7,0.04
2013-1-12,68.3,59.7,55.0,61.9,55.2,52.4,96,85,70,30.06,29.98,7,0,10,0.01
2013-1-13,65.6,60.1,57.6,56.7,55.2,52.9,95,84,65,30.01,29.95,15,2,18,0.26
2013-1-14,59.2,52.4,44.9,58.1,51.2,43.6,96,96,95,30.11,29.96,7,1,8,0.16
2013-1-15,48.6,44.6,41.5,47.5,43.5,40.5,96,96,96,30.09,29.92,8,1,10,0.19
2013-1-16,55.0,51.5,45.4,53.9,50.2,44.3,97,95,94,29.95,29.87,2,0,3,0.27
2013-1-17,46.0,34.4,26.3,44.9,31.9,21.9,96,90,81,30.38,29.74,14,2,18,0.13
2013-1-18,44.1,33.4,26.6,31.7,26.8,23.6,90,78,49,30.53,30.43,5,0,6,0.40
2013-1-19,52.2,37.9,29.1,30.9,25.0,16.4,84,63,27,30.35,30.09,8,0,13,0.10
2013-1-20,53.8,39.9,27.8,32.1,26.7,24.4,89,62,35,30.10,30.03,12,2,14,0.00
2013-1-21,48.8,32.6,18.0,26.6,13.5,2.3,56,46,30,30.13,29.95,21,8,26,0.00
2013-1-22,29.5,25.1,22.2,10.4,0.2,-7.1,55,35,20,30.30,30.18,18,4,18,0.00
2013-1-23,41.3,35.7,26.3,29.4,22.8,16.0,79,60,42,30.27,29.94,22,5,26,0.00
2013-1-24,35.9,25.4,18.0,12.2,5.3,1.7,61,42,29,30.47,30.22,11,2,16,0.00
2013-1-25,39.8,32.9,22.4,37.9,28.9,15.7,95,86,66,30.30,30.07,16,3,21,0.01
2013-1-26,46.2,33.8,25.6,23.6,18.7,10.3,87,58,27,30.45,30.15,12,1,12,0.00
2013-2-3,38.9,32.3,27.3,25.5,21.7,16.7,69,65,51,30.00,29.88,25,8,25,0.00
2013-2-4,49.1,34.5,24.2,24.3,19.8,15.4,74,57,32,30.14,29.95,13,1,13,0.00
2013-2-5,53.9,40.1,28.7,36.4,28.9,22.4,82,65,45,29.99,29.89,13,2,13,0.00
2013-2-6,56.5,44.2,32.4,35.5,25.3,17.4,87,51,23,30.20,29.92,17,2,17,0.00
2013-2-7,44.8,39.1,36.0,37.9,28.4,15.9,95,69,31,30.24,29.98,12,3,12,0.43
2013-2-8,47.1,39.6,32.2,44.9,34.7,24.2,97,84,57,30.10,29.89,22,3,22,0.02
2013-2-9,54.4,37.5,26.0,27.1,23.0,16.5,83,59,24,30.34,30.07,13,1,14,0.00
2013-2-10,46.4,40.2,34.6,44.8,26.7,17.5,95,61,38,30.38,30.11,10,0,10,0.20
2013-2-11,55.9,50.2,46.2,52.8,41.3,14.4,96,76,26,30.11,29.91,19,2,19,0.07
2013-2-12,51.1,43.7,37.6,35.8,23.8,12.1,91,48,24,30.08,29.88,20,2,20,0.07
2013-2-13,45.4,38.0,33.4,43.6,35.0,28.0,96,89,74,29.90,29.60,22,1,22,0.22
2013-2-14,51.9,37.8,27.3,30.3,25.8,22.3,83,64,32,30.06,29.86,11,1,11,0.00
2013-2-15,54.5,39.2,27.9,34.8,28.7,24.2,93,70,33,30.10,29.92,21,1,21,0.00
2013-2-16,35.0,32.1,30.6,26.8,21.6,19.1,76,65,55,29.94,29.84,13,1,13,0.00
2013-2-17,32.4,25.2,17.3,10.9,7.6,4.6,64,48,33,30.28,29.99,19,4,25,0.00
2013-2-18,50.1,34.5,18.8,23.1,17.6,10.4,74,52,30,30.38,30.12,11,0,12,0.00
2013-2-19,52.0,39.8,32.2,41.1,24.6,10.2,93,58,30,30.13,29.81,22,4,22,0.05
2013-2-20,44.8,34.9,27.9,14.4,-0.1,-15.3,51,25,10,30.12,29.95,30,6,30,0.00
2013-2-21,59.6,38.9,21.8,34.4,14.4,3.0,89,42,13,30.21,30.03,8,1,8,0.11
2013-2-22,39.1,35.3,31.9,37.2,32.9,28.6,95,91,80,30.23,30.08,8,0,8,0.24
2013-2-23,50.8,44.1,35.5,49.3,42.7,34.2,97,95,89,30.09,29.79,5,0,5,0.06
2013-2-24,53.9,44.2,31.6,38.9,26.7,15.6,87,54,26,30.03,29.79,20,3,20,0.02
2013-2-25,42.3,35.1,29.3,26.1,22.8,20.1,86,61,46,30.15,29.97,17,2,17,0.08
2013-2-26,33.2,30.5,27.8,31.7,28.4,25.5,94,92,86,30.03,29.64,18,2,18,29.81
2013-3-7,43.6,31.5,24.4,30.4,24.2,20.5,87,75,55,30.29,30.13,7,3,14,0.01
2013-3-8,52.0,34.4,21.3,25.0,22.4,18.6,92,65,29,30.35,30.24,6,1,13,0.00
2013-3-9,59.0,44.1,27.6,31.7,23.2,17.3,78,47,27,30.34,30.19,3,0,11,0.00
2013-3-10,59.5,48.9,38.3,34.4,30.4,27.2,69,50,34,30.25,30.12,3,0,11,0.00
2013-3-11,53.2,49.2,43.6,48.8,45.1,33.0,94,86,62,30.11,29.78,4,1,22,0.53
2013-3-12,50.8,45.2,39.1,49.4,36.3,26.9,95,73,44,30.00,29.69,8,4,18,0.21
2013-3-13,44.3,34.8,26.7,29.2,20.6,12.5,69,57,38,30.15,29.98,17,4,24,0.00
2013-3-14,44.8,32.2,22.1,15.7,12.2,6.4,66,46,23,30.30,30.14,19,3,19,0.00
2013-3-15,65.8,47.8,32.7,39.3,28.4,10.9,72,49,23,30.20,29.85,18,2,18,0.00
2013-3-16,74.0,60.9,43.8,44.6,40.7,37.2,80,50,28,29.88,29.66,21,5,21,0.00
2013-3-17,70.3,56.2,41.9,48.7,43.3,38.2,91,65,35,29.97,29.78,14,1,14,0.00
2013-3-18,43.5,38.0,33.2,42.4,36.7,31.9,96,95,90,30.06,29.85,13,2,13,0.26
2013-3-19,54.2,43.5,36.6,43.0,26.0,7.9,96,56,27,30.07,29.85,20,4,22,0.00
2013-3-20,51.6,39.9,29.8,27.9,10.4,3.8,84,32,18,30.08,29.81,22,2,22,0.00
2013-3-21,33.4,27.1,19.5,22.9,10.6,5.3,75,50,35,29.97,29.74,25,5,25,0.00
2013-3-22,49.1,34.7,21.0,23.1,13.1,3.7,66,43,18,30.07,29.95,11,1,11,0.00
2013-3-23,58.6,42.8,33.1,43.4,33.2,19.7,92,70,45,30.01,29.82,10,0,10,0.04
2013-3-24,42.6,38.1,34.4,38.2,36.0,32.7,95,92,78,29.86,29.52,14,3,25,0.51
2013-3-25,37.0,31.9,27.3,33.1,22.8,17.2,96,70,48,29.88,29.52,31,7,31,0.02
2013-3-26,34.0,29.2,25.7,25.7,21.8,19.5,81,74,65,30.19,29.86,24,4,24,0.00
2013-3-27,42.9,33.0,26.7,23.5,21.1,17.9,83,63,39,30.27,30.17,18,2,18,0.00
2013-3-28,49.4,36.3,26.3,22.2,19.7,15.9,74,53,28,30.31,30.20,18,2,18,0.00
2013-3-29,53.5,40.4,28.5,36.2,25.4,14.0,89,59,21,30.33,30.18,13,1,13,0.02
2013-3-30,59.0,47.0,38.8,44.9,38.8,36.2,95,76,46,30.20,30.00,11,0,11,0.13
2013-3-31,62.9,51.7,45.5,51.6,46.2,38.3,96,83,51,30.01,29.78,17,2,17,0.18
2013-4-1,62.0,50.4,36.9,48.2,37.5,28.6,93,63,41,29.93,29.78,19,3,19,0.01
2013-4-2,56.5,45.2,35.3,29.9,20.4,9.4,66,40,20,30.12,29.92,22,3,22,0.00
2013-4-3,58.3,46.7,32.1,27.3,19.6,14.5,63,35,18,30.23,30.08,6,0,10,0.00
2013-4-4,45.4,35.8,31.3,33.4,26.3,13.7,95,72,33,30.20,29.96,18,3,18,1.69
2013-4-5,57.6,44.7,34.4,42.3,36.4,32.4,96,75,45,30.04,29.89,13,2,13,0.00
2013-4-6,63.2,49.7,34.6,37.0,31.8,27.4,85,54,28,30.17,30.01,11,0,11,0.00
2013-4-7,66.8,53.8,39.5,42.9,37.3,31.4,79,55,35,30.15,30.00,16,1,16,0.00
2013-4-8,72.7,58.7,45.8,50.2,45.3,40.7,86,64,39,30.08,29.96,13,1,16,0.00
2013-4-9,79.8,65.1,50.4,53.5,50.0,46.0,89,61,33,30.09,29.97,8,1,10,0.00
2013-4-10,84.5,67.7,52.8,54.5,51.1,42.2,88,59,25,29.99,29.82,11,1,11,0.00
2013-4-11,75.1,64.7,55.4,58.1,52.3,47.9,84,66,39,29.83,29.62,17,1,17,0.00
2013-4-13,58.0,48.5,44.3,35.4,33.4,29.8,69,57,34,30.01,29.93,7,0,9,0.01
2013-4-14,66.6,56.9,49.9,48.8,42.9,32.9,94,64,29,30.02,29.90,11,1,13,0.02
2013-4-15,59.9,55.5,53.3,53.5,52.0,51.0,93,88,77,30.19,30.03,7,0,8,0.01
2013-4-16,75.8,64.8,55.6,56.9,54.5,52.4,91,71,47,30.20,30.10,7,0,8,0.01
2013-4-17,67.1,60.7,56.5,60.6,56.3,53.8,93,86,71,30.16,30.03,7,0,8,0.01
2013-4-18,70.8,65.0,60.9,59.1,56.5,53.0,89,75,55,30.07,29.74,13,1,15,0.01
2013-4-19,64.3,48.7,34.7,59.8,41.9,23.5,92,77,62,30.05,29.65,19,5,20,0.00
2013-4-20,58.3,45.8,34.9,31.1,27.8,21.5,79,53,26,30.33,30.10,9,1,12,0.01
2013-4-21,58.1,48.8,39.9,35.3,32.6,25.4,81,56,32,30.40,30.29,11,2,12,0.00
2013-4-22,60.9,49.1,38.2,37.0,31.6,25.9,78,52,36,30.31,30.17,8,1,8,0.00
2013-4-23,68.3,56.2,44.5,44.6,41.5,36.1,91,62,32,30.16,30.02,7,0,10,0.00
2013-4-24,67.6,55.9,39.6,55.8,47.3,34.6,87,74,51,30.15,29.95,16,1,16,0.01
2013-4-25,68.3,53.5,35.0,40.1,22.8,8.5,75,35,10,30.32,30.14,11,1,13,0.00
2013-4-26,65.2,57.2,48.9,45.4,36.5,27.3,87,49,27,30.35,30.24,7,0,10,0.00
2013-4-27,56.7,50.4,48.2,49.1,47.7,43.0,95,90,61,30.30,30.18,3,0,5,0.10
2013-4-28,50.1,49.6,47.6,49.0,48.5,46.2,96,96,95,30.16,29.96,4,0,7,0.02
2013-4-29,69.3,59.9,52.0,56.0,53.3,47.9,95,80,47,29.97,29.88,5,0,6,0.00
2013-4-30,70.9,61.4,52.8,55.2,52.6,48.7,88,74,52,30.13,29.96,9,1,9,0.01
2013-5-1,59.3,55.0,50.4,51.8,50.2,48.7,95,84,69,30.22,30.17,11,2,13,0.00
2013-5-2,53.9,51.8,49.5,52.5,50.6,48.1,96,96,94,30.25,30.11,8,1,10,0.01
2013-5-3,53.5,50.1,41.9,49.5,45.7,38.0,92,85,79,30.16,30.01,13,3,16,0.00
2013-5-4,47.3,45.6,42.6,45.7,44.3,41.2,96,95,94,30.04,29.86,15,4,15,0.01
2013-5-5,50.8,46.8,42.2,49.7,45.7,41.1,96,96,96,29.93,29.77,11,2,13,0.00
2013-5-6,62.9,49.7,39.5,51.0,41.8,38.2,95,76,46,29.88,29.75,6,0,8,0.00
2013-5-7,62.7,51.3,48.9,51.2,48.0,42.1,96,89,48,29.92,29.85,4,0,4,0.01
2013-5-8,66.1,55.8,46.2,55.2,50.4,44.8,96,83,59,30.04,29.90,7,0,8,0.00
2013-5-9,77.9,63.6,52.0,55.6,52.0,47.6,94,70,35,30.04,29.97,7,0,9,0.01
2013-5-10,76.1,70.2,54.5,57.7,54.7,51.4,93,59,43,29.97,29.82,12,1,12,0.00
2013-5-11,73.3,55.8,48.8,58.2,50.4,43.8,92,82,56,29.86,29.74,10,0,13,0.00
2013-5-12,62.6,49.7,35.8,41.1,31.7,28.1,85,52,29,30.11,29.90,10,1,13,0.00
2013-5-13,61.8,48.1,35.5,33.1,29.4,19.8,86,54,20,30.22,30.06,13,1,14,0.00
2013-5-14,73.0,62.4,50.7,51.9,45.5,34.3,88,58,28,30.16,29.96,9,0,11,0.00
2013-5-15,86.3,71.4,55.6,54.3,49.7,45.3,81,50,27,29.99,29.87,8,0,10,0.00
2013-5-16,77.9,64.9,53.9,55.7,52.9,49.8,94,69,39,30.01,29.89,5,0,10,0.00
2013-5-17,77.9,67.4,58.9,59.2,56.4,53.8,93,70,45,30.02,29.97,8,0,9,0.00
2013-5-18,63.5,61.6,60.4,62.0,60.3,59.1,96,95,94,30.05,29.99,0,0,1,0.00
2013-5-19,72.5,65.4,59.2,67.8,61.2,55.4,96,87,71,30.01,29.93,5,0,7,0.00
2013-5-20,77.4,67.4,60.4,68.1,62.1,56.8,95,84,65,30.08,29.89,0,0,1,0.01
2013-5-21,83.0,69.5,60.1,67.7,62.7,58.7,95,81,52,29.98,29.83,2,0,5,0.00
2013-5-22,77.4,63.7,58.9,69.3,60.3,55.8,96,89,65,29.91,29.80,6,0,8,0.00
2013-5-23,78.5,65.3,55.1,61.8,53.6,49.3,83,67,45,29.91,29.77,12,1,13,0.00
2013-5-24,67.3,54.4,37.9,47.5,39.4,34.1,90,59,38,30.26,30.03,7,0,8,0.00
2013-5-25,73.9,61.0,52.2,45.9,40.6,33.7,79,50,24,30.20,30.05,6,0,8,0.00
2013-5-26,72.8,60.0,49.6,50.2,47.3,41.0,93,67,35,30.20,30.11,7,0,8,0.00
2013-5-27,79.6,66.2,56.0,58.2,55.1,53.0,94,70,43,30.16,30.07,6,0,6,0.00
2013-5-28,80.3,67.6,56.9,62.2,57.5,53.6,93,72,42,30.14,30.07,5,0,8,0.00
2013-5-29,81.4,67.6,58.1,64.0,58.6,55.2,95,75,41,30.17,30.07,1,0,3,0.00
2013-5-30,79.6,67.9,60.5,64.0,59.2,57.0,92,75,55,30.18,30.09,2,0,5,0.00
2013-5-31,80.7,69.4,61.6,62.3,59.5,55.7,92,73,45,30.14,30.02,6,0,6,0.00
2013-6-1,81.1,70.4,63.1,62.9,60.7,57.7,94,74,46,30.00,29.89,7,0,10,0.00
2013-6-2,69.3,64.6,62.4,67.8,63.0,61.0,95,95,92,29.92,29.83,0,0,2,0.00
2013-6-3,79.4,67.6,58.3,63.2,59.4,56.4,95,77,50,29.99,29.73,6,0,8,0.00
2013-6-4,76.8,68.3,62.4,63.9,61.2,59.4,92,79,59,30.02,29.94,0,0,6,0.00
2013-6-5,76.7,64.6,63.1,65.4,60.6,59.5,88,87,68,29.99,29.79,1,0,6,0.00
2013-6-6,73.5,67.9,63.4,66.9,63.9,61.6,95,87,75,29.80,29.59,0,0,1,0.00
2013-6-7,78.3,67.5,60.9,66.4,62.3,58.3,96,84,59,29.79,29.56,6,0,6,0.16
2013-6-8,79.9,70.2,59.6,66.4,62.6,58.5,96,78,50,30.01,29.76,2,0,2,0.00
2013-6-9,78.1,67.0,60.7,69.3,63.8,58.7,96,90,65,30.08,29.95,6,0,6,0.51
2013-6-10,73.2,66.5,62.1,66.2,62.6,58.0,96,88,64,29.98,29.82,12,0,12,0.63
2013-6-11,81.1,69.8,61.5,63.4,61.0,57.1,96,76,46,29.95,29.86,7,0,7,0.08
2013-6-12,87.8,73.5,60.9,70.6,65.4,58.9,94,77,51,29.95,29.84,6,0,6,0.00
2013-6-13,87.4,72.5,63.2,66.9,62.5,59.0,93,73,41,29.86,29.63,12,0,12,0.03
2013-6-14,78.1,65.7,53.1,61.9,54.5,49.2,94,70,41,30.00,29.72,14,0,14,0.00
2013-6-15,82.4,66.2,51.3,62.4,55.0,48.9,95,70,38,30.10,29.98,2,0,2,0.00
2013-6-16,84.1,69.5,56.9,65.1,60.3,55.2,95,75,43,30.08,29.95,0,0,0,0.00
2013-6-17,78.3,70.0,64.3,67.4,64.6,61.9,94,84,64,29.95,29.85,1,0,1,0.05
2013-6-18,73.9,67.6,61.3,68.3,64.1,58.3,96,89,74,29.88,29.73,7,0,7,0.02
2013-6-19,78.1,67.3,57.5,65.9,60.5,55.8,95,80,58,30.03,29.86,1,0,1,0.01
2013-6-20,76.5,67.9,61.3,66.8,62.3,59.0,94,83,65,30.16,30.02,0,0,0,0.00
2013-6-21,65.2,62.2,59.6,61.6,59.7,57.5,95,91,88,30.19,30.12,0,0,0,0.00